Location: *
(57.8420°S, 159.8600°W)
Time: 04:57:35
(UTC+00:00)

Lacrosse 4 Rocket - Pass Details

Date: 18 May 2021
Orbit: 541 x 616 km, 68.0° (Epoch: 20 June)

Event Time Altitude Azimuth Distance (km) Brightness Sun altitude
Rises 04:24:16 0° 247° (WSW) 2,780 5.8 -15.0°
Reaches altitude 10° 04:26:55 10° 231° (SW) 1,897 4.6 -15.3°
Maximum altitude 04:30:12 21° 180° (S) 1,334 3.1 -15.8°
Enters shadow 04:31:49 18° 150° (SSE) 1,497 3.1 -16.0°
